Погода в Херсоне

Хотите узнать прогноз погоды в Херсоне? Тогда Вам сюда: Погода в Херсоне

Поиск расширенной информации на нашем сайте:

Полезная информация:

Новости сайта



02.01.2020
Опубликован Долгосрочный прогноз погоды по городам России и ближнего зарубежья на январь 2020 года.
Карты: Прогноз на январь и февраль 2020 года, Сравнение прогнозируемой аномалии приземной температуры воздуха на январь 2020 года по разным моделям.




Погода в Херсоне - сегодня

Время (UTC), дата Ветер
(°,м/с) 
Видим.   Явления Облачность Т
(°С)
Тd
(°С)
f(%) Тe
(°С)
Pmin
(гПа)
dP
(гПа)
Po
(мм)
O2
(г/м3)
Тmin Tmax R s Состояние
почвы
18 24.01.20 220 (ЮЗ) 10 км    ясно 
+1.6 -1.6 79 1024.2  -0.9  763  306    +5       
21 24.01.20 220 (ЮЗ) 10 км    ясно 
+1.8 -0.7 83 1023  -1.2  762  305           
00 25.01.20 220 (ЮЗ) 4000 м  дымка  ясно 
+1.4 -0.6 87 +1  1021.8  -1.2  761  305           
03 25.01.20 190 (Ю) 4000 м  дымка  ясно 
+1.6 +0.2 90 +1  1019.6  -2.2  760  304           
06 25.01.20 260 (З) 1000 м  дымка  3/0 верхняя 
[Cs]
+0 -0.3 98 -1  1019.4  -0.2  759  306  -0.1         
09 25.01.20 240 (ЮЗ) 10 км    1/0 верхняя 
[Ci fib]
+3.2 -3.3 62 +2  1019.7  0.4  760  303           
12 25.01.20 240 (ЮЗ) 20000 м    ясно 
+7.4 -3.2 47 +6  1017.9  -1.7  758  298           
15 25.01.20 230 (ЮЗ) 20000 м    3/0 верхняя 
[Ci sp]
+4.2 -3.4 58 +3  1018.5  0.5  759  302           
18 25.01.20 240 (ЮЗ) 10 км    ясно 
+1.6 -3.2 70 1019.7  1.1  760  305           
21 25.01.20 250 (З) 10 км    ясно 
+0.1 -4.7 70 -2  1020.6  0.9  760  307           
00 26.01.20 270 (З) 10 км    ясно 
-0.8 -5.5 70 -3  1021.3  0.6  761  308           
03 26.01.20 280 (З) 10 км    ясно 
-2.4 -6.8 72 -4  1022.3  762  310           
06 26.01.20 320 (СЗ) 4000 м  дымка  10/4 600 м средняя 
[Sc|Ac und]
-2 -3.3 91 -3  1024.3  763  310  -4.2         
09 26.01.20 350 (С) 10 км    3/0 средняя, верхняя 
[Ac lent|Cc]
+2.9 -0.4 79 +2  1025.6  1.4  764  305           
12 26.01.20 300 (СЗ) 20000 м    4/1 600 м средняя, верхняя 
[Cu med, cong|Ac lent|Cc]
+6 -1.7 58 +7  1024.4  -1.1  763  301           
15 26.01.20 тихо ()   20000 м    8/4 600 м средняя 
[Sc diur, vesp|Ac cuf]
+5 -2.3 59 +5  1024.4  763  302           
18 26.01.20 230 (ЮЗ) 4000 м  дымка  ясно 
+0.6 -1.4 86 1025.1  0.6  764  307    +6.3       
21 26.01.20 230 (ЮЗ) 2000 м  дымка  ясно 
-1.2 -1.8 96 -2  1024.9  -0.3  764  309           
00 27.01.20 тихо ()   2000 м  дымка  ясно 
-2.6 -3.2 96 -3  1024.1  -0.8  763  311           
03 27.01.20 170 (Ю) 1000 м  дымка  ясно 
-4.1 -4.3 99 -4  1023.5  -0.6  762  312           
06 27.01.20 080 (В) 0500 м  переохл. туман  3/3 2000 м средняя 
[Ac lent]
-6.1 -6.1 100 -6  1023.1  -0.5  762  315  -6.4  +10.3       
09 27.01.20 080 (В) 0500 м  туман  4/4 2000 м средняя 
[Ac lent]
-0.1 -0.1 100 +1    -0.7  750  302           
12 27.01.20 090 (В) 10 км  {туман}  5/5 2000 м средняя 
[Ac lent]
+5.2 -0.1 69 +5  1019.2  -2.2  760  300           
15 27.01.20 110 (В) 10 км    3/3 2000 м средняя 
[Ac lent]
+3 -1.5 72 +2  1018.3  -1  759  303           
18 27.01.20 090 (В) 4000 м  дымка  ясно 
+0.1 -1.7 88 +1  1017.7  -0.6  759  306    +5.7       
Время (UTC), дата Ветер
(°,м/с) 
Видим.   Явления Облачность Т
(°С)
Тd
(°С)
f(%) Тe
(°С)
Pmin
(гПа)
dP
(гПа)
Po
(мм)
O2
(г/м3)
Тmin Tmax R s Состояние
почвы

Для получения пояснительной информации подведите курсор к названию столбца.

ПОГОДА в Херсоне - архив

Всё, что Вы хотите узнать о погоде в Херсоне - удобно и подробно!

Выберите нужную дату (начиная с 1 января 2019* года) и нажмите кнопку "Найти".
Будут отображены архивные сводки погоды по пункту Херсон, начиная с указанной даты.


Отображать данные в формате CSV (для использования в таблицах Excel)


Внимание! Наш архив погоды предназначен исключительно для личного некоммерческого использования в познавательных целях. Если Вам необходимы официальные справки о состоянии погоды (для производственных, юридических, коммерческих и т.п. целей), обращайтесь в органы Росгидромета.

*Примечание: данная дата относится к архиву по метеостанциям СССР (Россия, СНГ, Балтия).
Архив по метеостанциям Зарубежной Европы и Азии (кроме Китая) хранится 10 дней, по другим регионам земного шара (Китай, Африка, Америка, Австралия, Океания) - 1 день.

Херсон - район местоположения метеостанции


Название, широта, долгота, высота метеостанции:
Херсон 46.6°ш. 32.6°д. 54 м над ур. моря [Украина]

Дополнительная информация

В oтличие oт бoльшинства пoгoдных сайтoв мы публикуем пoдрoбную метеoинфoрмацию в детальнoм прoфессиoнальнoм фoрмате.

Характеристики температуры и влажнoсти вoздуха измеряются на высoте 2 м в тени вдали oт зданий и деревьев.
Скoрoсть ветра измеряется на высoте 10 м (на урoвне рoста челoвека скoрoсть ветра ниже в 1.5-2 раза). Если метеoстанция нахoдится в гoрoде или в лесу, тo скoрoсть ветра занижена на 2-4 м/с пo сравнению с oткрытым местoм. Скoрoсть ветра над акватoриями крупных рек и oзёр, а также на вершинах хoлмoв на 2-5 м/с выше, чем в oбычных услoвиях.
Атмoсфернoе давление в разных тoчках местнoсти мoжет значительнo oтличаться oт давления на метеoстанции, в зависимoсти oт услoвий рельефа (при пoдъёме на 10 м давление пoнижается примернo на 1 мм рт.ст.).